Preview of NWS' New Version of Forecast
This preview is not operational and should not be used for support decisions.

Regional Weather Roundup (RWR)

Issued by National Weather Service (NWS)

                            
000
ASUS46 KPQR 181010
RWROR 

OREGON REGIONAL WEATHER ROUNDUP
NATIONAL WEATHER SERVICE PORTLAND OR
200 AM PST MON FEB 18 2019

NOTE: "FAIR" INDICATES FEW OR NO CLOUDS BELOW 12,000 FEET WITH
NO SIGNIFICANT WEATHER AND/OR OBSTRUCTIONS TO VISIBILITY.

ORZ001>013-181100-
NORTHWEST OREGON

  
CITY           SKY/WX    TMP DP  RH WIND       PRES   REMARKS
ASTORIA        MOCLDY    32  31  96 SE5       30.37R                  
TILLAMOOK      CLEAR     30  28  93 CALM      30.40R FOG              
NEWPORT        CLOUDY    32  32 100 E5        30.39S FOG              
PORTLAND       PTCLDY    29  27  92 W3        30.38R                  
VANCOUVER WA   CLEAR     28  26  92 CALM      30.37R                  
SCAPPOOSE      CLEAR     30  27  88 CALM      30.37R                  
HILLSBORO      PTCLDY    26  25  96 CALM      30.37R                  
AURORA         CLEAR     32  30  92 CALM      30.38R                  
MCMINNVILLE    FOG       30  29  96 W5        30.37R VSB 1/2          
SALEM          CLEAR     29  27  92 CALM      30.36R FOG              
CORVALLIS      CLOUDY    32  30  92 W5        30.38R                  
EUGENE         CLOUDY    34  32  92 MISG      30.36R                  
$$

ORZ021-028-181100-
SOUTHWEST OREGON

  
CITY           SKY/WX    TMP DP  RH WIND       PRES   REMARKS
NORTH BEND     MOCLDY    32  32 100 SE9       30.39R                  
BROOKINGS      CLEAR     33  30  88 CALM      30.30S                  
ROSEBURG       CLOUDY    32  31  96 CALM      30.35R                  
SEXTON SUMMIT  FOG       23  22  96 N8        30.17S VSB 1            
GRANTS PASS    MOCLDY    27  25  93 CALM      30.33                   
MEDFORD        CLEAR     30  26  85 CALM      30.29R                  
$$

ORZ014>016-041-181100-
COLUMBIA GORGE

  
CITY           SKY/WX    TMP DP  RH WIND       PRES   REMARKS
TROUTDALE      CLOUDY    34  32  92 CALM      30.37R                  
HOOD RIVER     CLOUDY    32  32 100 CALM      30.35R                  
THE DALLES     CLOUDY    33  31  92 CALM      30.36R                  
$$

ORZ029>031-041-044-049-050-061>064-502-503-505>511-181100-
EASTERN OREGON

  
CITY           SKY/WX    TMP DP  RH WIND       PRES   REMARKS
MADRAS         NOT AVBL                                               
REDMOND        FLURRIES  29  25  85 NW9       30.19R                  
BEND           CLOUDY    28  23  80 NW6       30.19R                  
PRINEVILLE     CLOUDY    28  25  86 W6        30.18                   
KLAMATH FALLS  CLEAR     19  14  81 CALM      30.14S                  
LAKEVIEW       CLOUDY    21  17  84 N6        30.09S                  
HERMISTON      CLOUDY    30  22  72 N3        30.34R                  
PENDLETON      CLOUDY    27  25  92 W5        30.28R                  
JOHN DAY       CLOUDY    27  24  86 CALM      30.14                   
MEACHAM        FOG       22  19  89 CALM      30.14R VSB 1/4          
LA GRANDE      FLURRIES  28  22  78 NW12      30.18R WCI  18          
BAKER CITY     CLOUDY    27  21  78 NW13      30.11S WCI  16          
BURNS          CLOUDY    22  16  78 W8        30.09S                  
ROME             N/A     22  19  89 SE6       30.04R                  
ONTARIO        MOCLDY    32  21  64 NW17      30.12R WCI  21          
$$